ICEYE-X27

导读

ICEYE-X27是由美国发射于2023年1月3日的合成孔径雷达卫星,隶属于芬兰ICEYE公司的SAR卫星星座,属于该星座下一代制造卫星,进一步扩充了星座容量。作为微型SAR卫星,它重量约85公斤,运行于太阳同步轨道,具备多种成像模式,最高地面分辨率可达0.5米,可全天时全天候对地观测,能近实时为商业和政府客户提供灾害监测、海事监控等多领域精准对地观测数据。

基本信息
目录编号:
55062
目录名称:
ICEYE-X27
国际标识:
2023-001BF
轨道中心:
EARTH
卫星名称:
ICEYE-X27
卫星全名:
--
卫星状态:
已陨落 最后检测时间 2025-11-15
发射日期:
2023-01-03 UTC
国别 :
美国 (US)
星等 :
--
轨道信息
数据来源 国际轨道数据
星历时间: 2025-11-15T04:52:42+0800
轨道信息已过期255天
半长轴: 6575.695km
偏心率: 0.0006493
轨道倾角: 97.329°
近地点辐角 268.592°
升交点赤经 33.572°
平近点角 91.462°
近地点: 193.29km
远地点: 201.83km
周期: 88.445分钟
每日圈数: 16.281345
详细信息
使用方式:
暂无